Dewpoint
34 32 32 31 33 31 31 30 30 30 35 43 44 43 39 53 57 57 58 59 59 60 61 64 64 65 66 68 69 70 71 73 72 72 72 72 71 72 72 72 73 72 72 71
34 32 33 32 32 31 31 26 25 27 35 38 38 40 44 50 55 57 57 57 58 58 60 62 63 64 65 67 69 70 71 73 72 71 73 72 73 72 72 73 73 73 72 71
34 31 32 32 31 28 26 22 23 26 27 28 31 33 41 45 54 57 57 58 57 58 59 64 65 61 63 66 68 69 71 72 73 73 72 72 73 73 71 72 72 73 72 72
34 32 28 26 25 27 22 22 21 21 22 23 32 20 39 43 45 49 53 54 56 57 60 63 60 59 63 64 67 70 71 72 72 73 73 72 71 70 71 71 72 73 73 73
32 30 27 28 24 24 23 26 25 24 24 24 32 24 31 44 45 52 57 59 55 57 60 62 65 65 64 65 66 68 71 72 73 73 73 72 71 71 71 72 72 74 74 73
31 26 26 27 23 24 24 25 28 31 27 22 34 32 34 42 46 46 52 57 58 58 60 62 64 64 65 64 66 67 71 72 73 73 73 73 72 72 72 72 72 72 73 72
28 29 25 24 23 22 22 20 22 20 22 23 37 35 36 43 46 47 50 56 59 59 60 61 62 60 62 65 68 68 70 72 73 72 72 72 72 73 72 72 71 72 71 71
27 26 23 23 23 23 20 19 19 20 19 22 38 35 37 47 52 53 55 59 59 61 62 65 66 67 65 62 69 70 71 72 71 71 72 70 69 67 68 70 70 70 71 71
24 22 18 21 19 22 23 22 21 25 34 32 36 40 42 45 50 52 57 60 59 60 63 65 66 66 66 67 66 71 72 72 71 70 68 68 68 69 68 69 71 70 73 73
25 22 16 21 22 24 21 23 21 29 29 27 35 39 35 45 47 52 55 58 59 60 64 65 66 68 68 66 68 70 70 71 70 67 67 66 67 68 68 69 70 71 73 74
19 21 23 29 31 22 23 25 31 32 35 26 25 32 43 45 48 50 54 59 58 57 63 64 65 67 69 69 67 67 67 68 69 69 70 69 68 69 71 70 71 72 75 75
21 18 24 27 31 33 34 33 32 29 36 39 35 31 44 48 47 50 54 59 57 59 62 64 64 65 65 66 68 69 71 71 71 72 72 71 72 73 72 73 73 75 75 76
22 23 23 30 31 34 36 37 34 32 36 40 31 31 47 51 52 53 53 57 59 61 63 62 63 64 64 60 64 64 67 67 68 69 69 71 71 70 72 73 73 73 74 74
35 23 24 18 30 35 36 36 35 33 31 34 34 35 46 52 55 53 58 60 61 63 60 59 58 58 60 62 62 63 62 64 64 65 68 70 70 71 70 72 72 72 73 73
26 30 36 37 35 36 35 35 37 36 37 34 35 38 48 51 56 60 60 54 52 51 52 52 52 54 56 58 59 59 59 60 61 64 65 66 70 70 71 71 72 72 72 71
34 38 37 35 36 37 37 39 39 39 39 40 41 46 47 52 52 50 49 50 51 52 53 54 55 55 55 56 58 59 59 59 61 62 62 64 66 67 67 68 68 69 71 72
36 35 36 33 34 33 30 39 40 41 42 42 42 46 46 46 46 48 51 52 52 53 53 53 54 54 55 54 56 57 58 59 60 60 61 62 63 64 65 66 66 66 66 68
39 41 37 32 33 28 38 43 42 41 42 44 45 43 45 46 50 51 52 53 53 54 54 54 54 54 54 54 55 58 58 60 60 60 61 61 62 63 64 64 64 65 65 66
38 39 36 33 33 38 40 41 41 41 42 44 43 44 46 48 48 50 53 53 53 53 54 54 54 55 56 56 57 58 58 58 59 59 60 61 61 62 62 61 62 63 63 64
36 42 36 39 35 31 38 42 43 43 39 44 43 44 46 45 41 45 53 53 53 54 54 54 55 54 55 56 56 57 57 58 57 58 59 60 61 61 61 62 62 62 63 62
38 39 34 34 33 32 41 43 43 39 39 44 43 44 44 43 47 52 53 53 54 54 53 55 55 55 56 57 57 55 55 53 55 55 56 56 56 56 58 61 62 62 62 62
38 39 36 39 37 32 43 44 42 48 46 44 45 46 48 50 53 53 53 53 53 53 53 54 54 55 54 54 53 53 52 52 52 52 52 52 53 52 51 55 57 61 62 62
37 42 41 41 40 46 45 46 46 46 47 48 50 50 52 52 52 52 52 52 52 53 54 53 53 52 53 52 53 50 52 53 52 52 53 53 53 52 52 52 52 54 59 59
44 45 44 46 44 44 45 46 47 48 50 51 52 53 52 52 52 51 51 51 52 53 52 52 50 49 49 52 51 51 52 52 52 52 52 52 51 52 51 51 50 50 54 57
43 45 46 44 46 45 46 48 51 53 53 52 52 52 52 52 52 51 51 52 52 48 45 45 46 46 49 51 51 51 52 53 52 52 52 51 51 51 51 51 51 51 52 54
43 46 41 38 48 48 49 52 53 53 52 52 52 52 52 52 51 51 51 46 43 44 45 44 44 45 47 50 51 52 52 53 53 52 50 50 50 51 52 52 52 51 49 48
Lifted_Index
1 0 -0 0 0 0 0 -0 -0 -0 0 -0 -1 -1 -1 -2 -4 -5 -5 -5 -5 -5 -5 -5 -5 -5 -5 -6 -6 -5 -5 -5 -5 -5 -5 -5 -5 -5 -4 -4 -3 -3 -2 -2
1 -0 -0 0 0 0 -0 -0 -1 -0 -0 0 -0 -0 -0 -2 -4 -5 -5 -5 -5 -5 -5 -4 -4 -4 -5 -5 -5 -5 -5 -5 -5 -5 -5 -5 -5 -5 -5 -4 -4 -3 -2 -2
0 0 -0 0 0 0 -0 -0 -0 -0 -0 0 1 1 0 -1 -2 -3 -4 -4 -5 -5 -4 -3 -3 -3 -4 -4 -4 -4 -5 -5 -5 -5 -5 -5 -5 -5 -5 -5 -4 -4 -3 -3
1 0 -0 -0 -0 -0 -0 -0 -0 0 -0 -0 0 1 1 -0 -1 -2 -3 -3 -4 -4 -4 -3 -3 -3 -3 -3 -3 -4 -4 -4 -5 -5 -5 -5 -5 -5 -5 -5 -4 -4 -4 -3
1 0 0 -0 -0 -0 0 0 0 0 -0 -0 -0 0 0 -0 -1 -1 -2 -3 -4 -4 -4 -4 -3 -3 -3 -3 -3 -3 -4 -4 -4 -5 -5 -5 -5 -5 -5 -5 -4 -4 -4 -4
1 1 0 0 0 0 0 0 0 0 -0 -0 -0 0 -0 -0 -0 -0 -1 -2 -3 -4 -4 -4 -4 -4 -3 -3 -3 -3 -3 -4 -4 -4 -5 -5 -5 -5 -5 -4 -4 -4 -4 -5
1 1 0 0 0 0 0 0 0 -0 -0 -0 -0 -0 -0 -0 -0 -0 -1 -2 -3 -4 -4 -4 -4 -4 -4 -4 -4 -4 -4 -4 -4 -4 -4 -4 -4 -4 -4 -4 -4 -4 -4 -5
1 0 0 0 0 0 0 1 1 0 -0 -0 -0 -1 -1 -0 -1 -1 -2 -3 -4 -4 -5 -5 -5 -5 -4 -4 -4 -5 -5 -4 -3 -3 -3 -3 -3 -2 -2 -3 -3 -4 -4 -5
0 0 0 1 1 1 1 1 1 1 0 -0 -0 -1 -1 -1 -1 -2 -3 -4 -4 -4 -5 -6 -6 -5 -4 -4 -4 -5 -5 -4 -4 -3 -3 -2 -2 -1 -1 -2 -2 -3 -4 -5
1 0 0 1 1 0 0 0 1 1 0 -0 -1 -1 -1 -1 -2 -2 -3 -4 -4 -4 -5 -6 -6 -6 -5 -4 -4 -4 -4 -4 -3 -3 -2 -2 -2 -2 -1 -2 -2 -3 -5 -5
1 0 0 0 0 -0 -0 -0 0 0 -0 -0 -0 -0 -0 -1 -1 -2 -3 -4 -4 -4 -5 -5 -6 -5 -5 -5 -4 -4 -4 -4 -3 -3 -3 -2 -2 -2 -3 -3 -4 -5 -6 -6
1 0 -0 0 0 0 -0 -0 0 0 -0 -0 -0 -0 -0 -1 -1 -2 -3 -4 -4 -4 -5 -5 -5 -5 -5 -4 -4 -3 -3 -3 -3 -3 -3 -3 -3 -3 -4 -4 -5 -6 -7 -7
1 0 -0 0 0 0 0 0 0 0 -0 -0 -1 -0 -1 -2 -2 -3 -3 -4 -4 -4 -5 -5 -5 -5 -4 -3 -2 -2 -2 -2 -2 -2 -3 -3 -4 -4 -4 -5 -5 -6 -6 -7
1 0 0 -0 0 0 0 0 1 0 0 -0 -0 -1 -1 -3 -3 -3 -4 -4 -4 -5 -5 -5 -4 -4 -2 -1 -0 -0 -0 -0 -0 -1 -2 -3 -3 -4 -4 -5 -5 -5 -5 -6
1 0 0 0 0 0 0 1 1 1 1 1 0 -0 -1 -3 -4 -4 -5 -4 -4 -4 -4 -4 -3 -2 -1 -1 0 1 2 2 2 1 -0 -1 -2 -3 -3 -4 -4 -4 -5 -5
1 0 0 0 0 0 0 1 1 1 1 1 1 0 -1 -3 -4 -4 -5 -5 -4 -4 -3 -3 -2 -1 -0 1 2 3 4 4 3 3 2 1 -0 -1 -2 -2 -3 -3 -4 -4
0 0 0 0 0 0 1 1 1 2 2 2 1 1 -0 -2 -3 -3 -4 -4 -3 -2 -2 -1 0 1 2 3 4 5 5 5 5 4 3 3 2 1 1 -0 -1 -1 -2 -3
0 0 0 0 0 1 1 1 2 2 2 2 1 1 0 -0 -1 -1 -1 -1 -1 -0 0 1 2 4 4 5 6 6 6 6 5 4 4 4 4 3 2 2 1 1 -0 -1
0 0 0 0 0 1 1 2 2 2 2 2 2 1 1 1 0 0 1 1 1 2 3 4 4 5 5 6 6 6 6 5 5 5 5 5 4 4 4 4 3 3 2 1
1 1 1 1 1 1 1 2 2 2 2 2 2 2 1 1 1 1 2 3 3 4 4 5 5 5 6 6 6 6 6 6 6 6 6 6 6 6 5 5 4 4 3 3
1 1 1 1 1 1 2 2 2 2 2 2 2 2 2 2 2 3 3 4 4 5 5 5 6 6 6 6 6 6 6 7 7 8 8 8 8 8 8 7 6 5 5 4
0 0 0 1 1 2 2 2 2 2 2 3 3 3 3 3 3 4 4 5 5 5 5 6 6 6 7 7 7 7 8 9 9 9 9 9 9 9 9 9 8 7 6 5
0 0 0 0 1 2 2 2 2 2 3 3 3 3 3 3 4 4 4 5 5 6 5 6 6 7 8 8 9 9 10 10 10 9 9 9 9 9 10 10 10 9 7 6
1 1 1 1 2 2 2 2 2 3 3 3 3 3 3 4 4 4 5 5 6 6 6 7 8 9 9 10 10 10 10 10 9 9 8 8 9 9 10 11 11 10 8 7
1 1 1 2 2 2 3 3 3 3 3 3 3 3 4 4 5 5 6 6 6 7 8 10 10 11 10 10 10 10 9 9 8 8 7 7 8 8 9 10 10 10 9 8
1 1 1 2 2 2 2 3 3 3 3 3 3 4 4 5 5 6 6 6 7 8 10 11 12 12 11 11 10 10 9 8 8 7 7 7 7 7 8 8 9 9 8 8